Weather History for El Arish, Egypt

Change the Weather History Date:

Monday, April 1, 2013

  Actual Average Record
Temperature  
Mean Temperature 74 °F -  
Max Temperature 87 °F 78 °F - ()
Min Temperature 57 °F 54 °F - ()
Cooling Degree Days 8    
Growing Degree Days 24 (Base 50)    
Moisture  
Dew Point 46 °F    
Average Humidity 47    
Maximum Humidity 100    
Minimum Humidity 10    
Precipitation  
Precipitation 0.00 in 0.01 in - ()
Sea Level Pressure  
Sea Level Pressure 29.86 in    
Wind  
Wind Speed 5 mph ()    
Max Wind Speed 14 mph    
Max Gust Speed -    
Visibility 1.8 miles    
Events      
T = Trace of Precipitation, MM = Missing Value Source: Averaged Metar Reports

Daily Weather History Graph

Daily Weather History Graph

Search for Another Location

Airport:

Trip Planner

Search our weather history database for the weather conditions in past years. The results will help you decide how hot, cold, wet, or windy it might be!

Date:

Astronomy

Apr. 01, 2013 Rise Set
Actual Time 5:33 AM EET 6:03 PM EET
Civil Twilight 5:09 AM EET 6:28 PM EET
Nautical Twilight 4:40 AM EET 6:56 PM EET
Astronomical Twilight 4:11 AM EET 7:25 PM EET
Moon 11:34 PM EET (4/1) 9:16 AM EET (4/1)
Length of Visible Light 13h 18m
Length of Day
12h 30m
Waning Gibbous, 70% of the Moon is Illuminated
Apr 1
Waning Gibbous
Apr 3
Last Quarter
Apr 10
New
Apr 18
First Quarter
Apr 25
Full

Hourly Weather History & Observations

Time (EET) Temp. Dew Point Humidity Pressure Visibility Wind Dir Wind Speed Gust Speed Precip Events Conditions
12:00 AM 60.8 °F 51.8 °F 72% 29.77 in - Calm Calm - N/A   Clear
1:00 AM 64.4 °F 42.8 °F 45% 29.77 in - SSE 4.6 mph - N/A   Clear
2:00 AM 68 °F 37 °F 21% 29.77 in 6 mi SSE 6.9 mph - -  
2:00 AM 68.0 °F 37.4 °F 33% 29.77 in - SSE 6.9 mph - N/A   Clear
3:00 AM 68.0 °F 35.6 °F 30% 29.77 in - Calm Calm - N/A   Clear
4:00 AM 66.2 °F 33.8 °F 30% 29.77 in - SE 2.3 mph - N/A   Clear
5:00 AM 64.4 °F 33.8 °F 32% 29.77 in - South 4.6 mph - N/A   Clear
6:00 AM 68.0 °F 33.8 °F 28% 29.80 in - South 4.6 mph - N/A   Clear
7:00 AM 71.6 °F 33.8 °F 25% 29.83 in - South 3.5 mph - N/A   Clear
8:00 AM 80 °F 33 °F 10% 29.85 in 6 mi SSW 8.1 mph - -   Mostly Cloudy
8:00 AM 80.6 °F 33.8 °F 18% 29.83 in - SSW 8.1 mph - N/A   Clear
9:00 AM 82.4 °F 32.0 °F 16% 29.86 in 2.5 mi SW 10.4 mph - N/A   Unknown
10:00 AM 84.2 °F 32.0 °F 15% 29.86 in 0.6 mi SW 13.8 mph - N/A   Sand
11:00 AM 86.0 °F 33.8 °F 15% 29.86 in 0.3 mi WSW 9.2 mph - N/A   Unknown
12:00 PM 87.8 °F 42.8 °F 21% 29.86 in 0.3 mi West 10.4 mph - N/A   Unknown
1:00 PM 82.4 °F 42.8 °F 25% 29.86 in 0.3 mi NW 10.4 mph - N/A   Unknown
2:00 PM 77 °F 53 °F 32% 29.87 in 0 mi NW 10.4 mph - -   Widespread Dust
2:00 PM 77.0 °F 51.8 °F 41% 29.86 in 0.3 mi NW 10.4 mph - N/A   Unknown
3:00 PM 73.4 °F 60.8 °F 65% 29.86 in 0.3 mi NNW 8.1 mph - N/A   Unknown
4:00 PM 77.0 °F 51.8 °F 41% - 0.6 mi NNW 6.9 mph - N/A   Unknown
5:00 PM 69.8 °F 62.6 °F 78% 29.86 in 0.6 mi NW 6.9 mph - N/A   Unknown
6:00 PM 68.0 °F 60.8 °F 78% 29.92 in 0.6 mi NW 5.8 mph - N/A   Unknown
7:00 PM 68.0 °F 62.6 °F 83% 29.92 in 1.9 mi NW 6.9 mph - N/A   Unknown
8:00 PM 65 °F 62 °F 89% 29.98 in 6 mi NNW 4.6 mph - -   Mostly Cloudy
8:00 PM 64.4 °F 62.6 °F 94% 29.98 in - NNW 4.6 mph - N/A   Clear
9:00 PM 64.4 °F 60.8 °F 88% 29.98 in - NW 2.3 mph - N/A   Clear
10:00 PM 60.8 °F 60.8 °F 100% 30.01 in - SE 1.2 mph - N/A   Clear
11:00 PM 57.2 °F 57.2 °F 100% 30.01 in - Calm Calm - N/A   Clear